TimeEST,TemperatureF,Dew PointF,Humidity,Sea Level PressureIn,VisibilityMPH,Wind Direction,Wind SpeedMPH,Gust SpeedMPH,PrecipitationIn,Events,Conditions,WindDirDegrees,DateUTC
12:53 AM,21.9,10.9,63,30.04,10.0,Calm,Calm,-,N/A,,Scattered Clouds,0,2014-01-16 05:53:00
1:53 AM,21.9,12.0,66,30.04,10.0,West,4.6,-,N/A,,Mostly Cloudy,260,2014-01-16 06:53:00
2:53 AM,21.0,12.0,68,30.03,10.0,Calm,Calm,-,N/A,,Clear,0,2014-01-16 07:53:00
3:53 AM,19.9,12.9,74,30.02,10.0,Calm,Calm,-,N/A,,Mostly Cloudy,0,2014-01-16 08:53:00
4:53 AM,21.0,14.0,74,30.00,10.0,Calm,Calm,-,N/A,,Mostly Cloudy,0,2014-01-16 09:53:00
5:06 AM,21.0,15.1,78,29.97,10.0,Calm,Calm,-,N/A,,Overcast,0,2014-01-16 10:06:00
5:53 AM,24.1,14.0,65,29.99,10.0,South,6.9,-,N/A,,Overcast,180,2014-01-16 10:53:00
6:53 AM,24.1,14.0,65,29.99,10.0,SSW,5.8,-,N/A,,Overcast,210,2014-01-16 11:53:00
7:53 AM,24.1,16.0,71,29.99,10.0,Variable,5.8,-,N/A,,Overcast,0,2014-01-16 12:53:00
8:53 AM,24.1,16.0,71,29.99,10.0,South,9.2,17.3,N/A,,Overcast,190,2014-01-16 13:53:00
9:53 AM,25.0,14.0,63,30.00,10.0,South,10.4,-,N/A,,Mostly Cloudy,190,2014-01-16 14:53:00
10:16 AM,25.0,12.0,58,29.97,10.0,SSW,11.5,19.6,N/A,,Scattered Clouds,210,2014-01-16 15:16:00
10:53 AM,26.1,12.9,58,29.99,10.0,SSW,11.5,19.6,N/A,,Mostly Cloudy,200,2014-01-16 15:53:00
11:00 AM,25.0,12.0,58,29.95,10.0,South,10.4,-,N/A,,Scattered Clouds,190,2014-01-16 16:00:00
11:53 AM,27.0,12.0,53,29.94,10.0,SSW,11.5,20.7,N/A,,Clear,210,2014-01-16 16:53:00
12:53 PM,28.9,12.9,51,29.90,10.0,South,12.7,19.6,N/A,,Clear,180,2014-01-16 17:53:00
1:53 PM,30.0,12.9,49,29.87,10.0,South,13.8,19.6,N/A,,Scattered Clouds,180,2014-01-16 18:53:00
2:53 PM,30.0,12.9,49,29.85,10.0,South,12.7,18.4,N/A,,Overcast,190,2014-01-16 19:53:00
3:53 PM,30.9,12.9,47,29.84,10.0,SSE,11.5,-,N/A,,Overcast,160,2014-01-16 20:53:00
4:53 PM,30.0,14.0,51,29.86,10.0,Variable,6.9,18.4,N/A,,Overcast,0,2014-01-16 21:53:00
5:53 PM,28.9,18.0,64,29.84,10.0,South,9.2,-,N/A,,Mostly Cloudy,180,2014-01-16 22:53:00
6:53 PM,28.9,17.1,61,29.84,10.0,SSE,6.9,-,N/A,,Overcast,160,2014-01-16 23:53:00
7:53 PM,30.0,18.0,61,29.83,10.0,SSE,5.8,-,N/A,,Overcast,150,2014-01-17 00:53:00
8:53 PM,30.0,18.0,61,29.83,10.0,SSE,6.9,-,N/A,,Overcast,160,2014-01-17 01:53:00
9:53 PM,30.9,16.0,54,29.84,10.0,Variable,5.8,-,N/A,,Overcast,0,2014-01-17 02:53:00
10:53 PM,30.0,21.0,69,29.83,10.0,Variable,6.9,-,N/A,,Overcast,0,2014-01-17 03:53:00
11:20 PM,30.0,23.0,75,29.80,2.5,Variable,6.9,16.1,0.00,Snow,Light Snow,0,2014-01-17 04:20:00
11:53 PM,28.9,24.1,82,29.83,2.5,South,6.9,-,0.00,Snow,Light Snow,190,2014-01-17 04:53:00